星链-32104 (STARLINK-32104 )

导读

STARLINK-32104是美国SpaceX公司星链星座的第二代卫星,于2024年5月8日发射入轨,部署在近地轨道,是星链全球宽带卫星星座的组成部分。该卫星配备激光星间链路与增强型相控阵天线,单星容量超100Gbps,可提供高速低时延互联网接入服务,助力星链实现全球覆盖,同时承担商用通信与潜在军事应用功能,设计寿命5-7年。

基本信息
目录编号:
59695
目录名称:
STARLINK-32104
国际标识:
2024-086P
轨道中心:
EARTH
卫星名称:
星链-32104
卫星全名:
星链-32104 (STARLINK-32104 )
卫星状态:
在轨 (已飞行849 天)
发射日期:
2024-05-08 UTC
国别 :
美国 (US)
星等 :
--
轨道信息
数据来源 国际轨道数据 AOE轨道数据
星历时间 2026-09-04T10:12:54+0800
13小时前
查看轨道信息
2026-09-03T22:00:00+0800
1天前
查看轨道信息
半长轴 6861.214km 6861.15km
偏心率 0.0000792 0.00013
轨道倾角 43.001° 43.004°
近地点辐角 7.948° 225.567°
升交点赤经 129.087° 131.964°
平近点角 352.139° 212.417°
近地点 482.533km 482.121km
远地点 483.621km 483.905km
周期 94.267分钟 94.266分钟
每日圈数 15.275707 15.275923
详细信息
固有亮度:
5
最大亮度:
1.5
卫星平台:
Starlink v2.0 mini
覆盖范围:
全球
运营商:
太空探索技术公司
运营商所在国:
美国
制造商(研发单位):
太空探索技术公司
制造商所在国:
美国
使用方式:
暂无
卫星简介
星链(Starlink)计划是由太空探索技术公司(SpaceX)提出的一个巨型低轨卫星互联网星座项目,计划在2019年至2024年间在太空搭建由约1.2万颗卫星组成的“星链”网络,其中1584颗将部署在地球上空550千米处的近地轨道,并从2020年开始工作。该卫星仍在工作。
2D轨道图
3D轨道图
轨道高度分析图
轨道倾角分析图
轨道综合分析图
查看轨道综合分析图
交会数据列表
事件ID 空间交会对象 最接近时刻(TCA) 交会距离 交会风险概率(CRP) 交会风险指数(CRI) 操作
CDM_260906-153105-969506-642921
2026-09-06T
15:31:33+0000
1.977 km
极远距离
2.281665E-6 低风险 0.42
CDM_260905-143105-969506-242221
2026-09-05T
14:31:59+0000
1.864 km
极远距离
2.266045E-6 低风险 0.42
CDM_260906-123205-969506-686621
2026-09-06T
12:32:49+0000
1.797 km
极远距离
2.185466E-6 低风险 0.42
CDM_260906-105805-969506-686621
2026-09-06T
10:58:40+0000
1.823 km
极远距离
2.104202E-6 低风险 0.41
CDM_260905-223705-291305-969521
2026-09-05T
22:37:06+0000
2.574 km
极远距离
1.538277E-6 低风险 0.39
CDM_260906-211005-969506-686621
2026-09-06T
21:10:40+0000
2.099 km
极远距离
1.483784E-6 低风险 0.38
CDM_260904-222405-969506-143221
2026-09-04T
22:24:25+0000
2.926 km
极远距离
1.299535E-6 低风险 0.37
CDM_260906-052605-969506-242221
2026-09-06T
05:26:27+0000
2.464 km
极远距离
1.221277E-6 低风险 0.37
CDM_260905-125705-969506-242221
2026-09-05T
12:57:50+0000
2.610 km
极远距离
1.111177E-6 低风险 0.36
CDM_260905-160605-969506-242221
2026-09-05T
16:06:08+0000
2.664 km
极远距离
1.076821E-6 低风险 0.36